Weather History for Du Bois, PA

Change the Weather History Date:

Friday, February 1, 2013

  Actual Average Record
Temperature  
Mean Temperature 12 °F 24 °F  
Max Temperature 17 °F 32 °F 60 °F (1989)
Min Temperature 6 °F 17 °F -7 °F (1971)
Degree Days  
Heating Degree Days 53 41  
Month to date heating degree days 53 41  
Since 1 July heating degree days 3634 3985  
Cooling Degree Days 0 0  
Month to date cooling degree days 0 0  
Year to date cooling degree days 0 0  
Moisture  
Dew Point 6 °F    
Average Humidity 77    
Maximum Humidity 88    
Minimum Humidity 66    
Precipitation  
Precipitation T in 0.08 in 0.57 in (2011)
Month to date precipitation T 0.08  
Sea Level Pressure  
Sea Level Pressure 30.00 in    
Wind  
Wind Speed 16 mph (West)    
Max Wind Speed 26 mph    
Max Gust Speed 35 mph    
Visibility 4 miles    
Events Fog , Snow    
T = Trace of Precipitation, MM = Missing Value Source: NWS Daily Summary

Daily Weather History Graph

Daily Weather History Graph

Search for Another Location

Airport:

Trip Planner

Search our weather history database for the weather conditions in past years. The results will help you decide how hot, cold, wet, or windy it might be!

Date:

Astronomy

Feb. 01, 2013 Rise Set
Actual Time 7:26 AM EST 5:32 PM EST
Civil Twilight 6:57 AM EST 6:01 PM EST
Nautical Twilight 6:24 AM EST 6:34 PM EST
Astronomical Twilight 5:51 AM EST 7:07 PM EST
Moon 11:42 PM EST (2/1) 9:54 AM EST (2/1)
Length of Visible Light 11h 04m
Length of Day
10h 06m
Waning Gibbous, 70% of the Moon is Illuminated
Feb 1
Waning Gibbous
Feb 3
Last Quarter
Feb 10
New
Feb 17
First Quarter
Feb 25
Full

Hourly Weather History & Observations

Time (EST) Temp. Windchill Dew Point Humidity Pressure Visibility Wind Dir Wind Speed Gust Speed Precip Events Conditions
12:40 AM 17.6 °F 6.4 °F 10.4 °F 73% 29.72 in 8.0 mi WSW 9.2 mph 18.4 mph N/A   Overcast
12:51 AM 17.6 °F 3.7 °F 8.6 °F 68% 29.71 in 10.0 mi West 13.8 mph 21.9 mph N/A   Overcast
12:56 AM 17.1 °F 4.3 °F 9.0 °F 71% 29.79 in 10.0 mi West 11.5 mph - N/A   Overcast
1:54 AM 15.8 °F 6.1 °F 8.6 °F 73% 29.70 in 10.0 mi West 6.9 mph - N/A   Overcast
1:56 AM 16.0 °F 6.3 °F 9.0 °F 74% 29.79 in 10.0 mi West 6.9 mph - N/A   Overcast
2:56 AM 15.1 °F 0.5 °F 6.1 °F 68% 29.81 in 10.0 mi West 13.8 mph - N/A   Overcast
3:56 AM 14.0 °F 1.2 °F 5.0 °F 67% 29.82 in 10.0 mi West 10.4 mph - N/A   Overcast
5:12 AM 12.2 °F -3.7 °F 6.8 °F 79% 29.77 in 6.0 mi West 15.0 mph - N/A   Haze
5:24 AM 12.2 °F -4.3 °F 6.8 °F 79% 29.78 in 1.8 mi West 16.1 mph 25.3 mph 0.00 in Snow Light Snow
5:56 AM 12.9 °F -4.4 °F 7.0 °F 77% 29.90 in 0.8 mi WSW 18.4 mph 25.3 mph 0.00 in Snow Light Snow
6:05 AM 12.2 °F -3.1 °F 6.8 °F 79% 29.81 in 1.5 mi WSW 13.8 mph 24.2 mph 0.00 in Snow Light Snow
6:15 AM 12.2 °F -3.1 °F 6.8 °F 79% 29.82 in 2.0 mi WSW 13.8 mph - 0.00 in Snow Light Snow
6:24 AM 12.2 °F -4.3 °F 8.6 °F 85% 29.83 in 1.2 mi West 16.1 mph - 0.00 in Snow Light Snow
6:43 AM 12.2 °F -3.1 °F 6.8 °F 79% 29.84 in 3.0 mi WSW 13.8 mph - 0.00 in Snow Light Snow
6:56 AM 12.0 °F -5.1 °F 7.0 °F 80% 29.94 in 5.0 mi West 17.3 mph 24.2 mph 0.00 in   Haze
7:08 AM 12.2 °F -5.3 °F 6.8 °F 79% 29.85 in 1.8 mi WSW 18.4 mph - 0.00 in Snow Light Snow
7:24 AM 12.2 °F -4.3 °F 6.8 °F 79% 29.86 in 2.0 mi WSW 16.1 mph 26.5 mph 0.00 in Snow Light Snow
7:33 AM 12.2 °F -4.8 °F 6.8 °F 79% 29.87 in 1.0 mi West 17.3 mph - 0.00 in Snow Light Snow
7:56 AM 12.0 °F -6.5 °F 6.1 °F 77% 29.98 in 4.0 mi WSW 20.7 mph 27.6 mph 0.00 in   Haze
8:24 AM 12.2 °F -5.3 °F 6.8 °F 79% 29.90 in 1.8 mi West 18.4 mph 28.8 mph 0.00 in Snow Light Snow
8:45 AM 12.2 °F -6.3 °F 6.8 °F 79% 29.91 in 2.5 mi West 20.7 mph 27.6 mph 0.00 in   Haze
8:52 AM 12.2 °F -6.7 °F 6.8 °F 79% 29.91 in 1.8 mi WSW 21.9 mph 28.8 mph 0.00 in   Haze
8:53 AM 12.2 °F -5.8 °F 6.8 °F 79% 29.91 in 2.0 mi West 19.6 mph 28.8 mph 0.00 in   Haze
8:56 AM 12.0 °F -7.3 °F 6.1 °F 77% 30.01 in 1.8 mi West 23.0 mph 28.8 mph 0.00 in   Haze
9:05 AM 12.2 °F -5.8 °F 6.8 °F 79% 29.92 in 1.2 mi WSW 19.6 mph 26.5 mph N/A   Haze
9:52 AM 12.2 °F -4.3 °F 6.8 °F 79% 29.94 in 3.0 mi West 16.1 mph 26.5 mph 0.00 in   Haze
9:56 AM 12.0 °F -6.0 °F 5.0 °F 73% 30.04 in 4.0 mi West 19.6 mph 26.5 mph 0.00 in   Haze
10:27 AM 12.2 °F -7.1 °F 5.0 °F 73% 29.96 in 1.8 mi West 23.0 mph 33.4 mph N/A   Haze
10:38 AM 12.2 °F -4.3 °F 6.8 °F 79% 29.97 in 3.0 mi West 16.1 mph 26.5 mph N/A   Haze
10:52 AM 14.0 °F -3.0 °F 6.8 °F 73% 29.97 in 2.5 mi West 18.4 mph 34.5 mph N/A   Haze
11:10 AM 14.0 °F -4.7 °F 6.8 °F 73% 29.98 in 1.2 mi WSW 23.0 mph 33.4 mph N/A   Haze
11:56 AM 14.0 °F -3.4 °F 7.0 °F 74% 30.08 in 1.0 mi West 19.6 mph 33.4 mph N/A   Haze
12:07 PM 15.8 °F -0.6 °F 6.8 °F 68% 29.99 in 3.0 mi West 18.4 mph 31.1 mph N/A   Haze
12:20 PM 14.0 °F -4.3 °F 6.8 °F 73% 29.99 in 1.8 mi West 21.9 mph 33.4 mph 0.00 in Snow Light Snow
12:56 PM 14.0 °F -4.3 °F 6.1 °F 71% 30.10 in 1.5 mi West 21.9 mph 28.8 mph 0.00 in   Haze
1:12 PM 14.0 °F -1.4 °F 6.8 °F 73% 30.00 in 2.0 mi West 15.0 mph 23.0 mph N/A   Haze
1:23 PM 14.0 °F -3.4 °F 6.8 °F 73% 30.01 in 1.2 mi West 19.6 mph 26.5 mph N/A   Haze
1:41 PM 14.0 °F -2.0 °F 6.8 °F 73% 30.01 in 0.8 mi West 16.1 mph 26.5 mph 0.00 in Snow Light Snow
1:52 PM 14.0 °F -1.4 °F 6.8 °F 73% 30.01 in 1.0 mi West 15.0 mph 21.9 mph 0.00 in   Haze
1:56 PM 14.0 °F -3.0 °F 8.1 °F 77% 30.11 in 0.8 mi WSW 18.4 mph 27.6 mph 0.00 in Snow Light Snow
2:15 PM 14.0 °F -3.0 °F 6.8 °F 73% 30.02 in 1.2 mi WSW 18.4 mph 23.0 mph 0.00 in   Haze
2:36 PM 14.0 °F -0.8 °F 8.6 °F 79% 30.03 in 0.5 mi West 13.8 mph 27.6 mph 0.00 in Snow Snow
2:56 PM 14.0 °F -1.4 °F 10.0 °F 84% 30.14 in 0.5 mi West 15.0 mph 28.8 mph 0.00 in Fog , Snow Light Snow
3:00 PM 14.0 °F -2.0 °F 10.4 °F 86% 30.04 in 0.2 mi West 16.1 mph - 0.00 in Fog , Snow Snow
3:06 PM 14.0 °F -3.4 °F 8.6 °F 79% 30.04 in 0.5 mi West 19.6 mph 27.6 mph 0.00 in Snow Snow
3:19 PM 14.0 °F -3.0 °F 6.8 °F 73% 30.05 in 1.8 mi West 18.4 mph 24.2 mph 0.00 in   Haze
3:30 PM 14.0 °F -3.0 °F 6.8 °F 73% 30.05 in 2.0 mi West 18.4 mph 26.5 mph 0.00 in   Haze
3:35 PM 14.0 °F -1.4 °F 8.6 °F 79% 30.06 in 0.8 mi West 15.0 mph 21.9 mph 0.00 in Snow Light Snow
3:49 PM 14.0 °F -2.0 °F 10.4 °F 86% 30.06 in 0.2 mi West 16.1 mph 21.9 mph 0.00 in Fog , Snow Light Snow
3:56 PM 14.0 °F -2.0 °F 9.0 °F 80% 30.17 in 0.8 mi West 16.1 mph 25.3 mph 0.00 in Snow Light Snow
4:30 PM 12.2 °F -2.5 °F 6.8 °F 79% 30.07 in 2.5 mi West 12.7 mph 21.9 mph 0.00 in   Haze
4:41 PM 12.2 °F -3.1 °F 8.6 °F 85% 30.07 in 0.8 mi West 13.8 mph 25.3 mph 0.00 in Snow Light Snow
4:54 PM 12.2 °F -6.7 °F 6.8 °F 79% 30.08 in 2.0 mi WSW 21.9 mph 28.8 mph 0.00 in Snow Light Snow
4:56 PM 12.9 °F -4.9 °F 6.1 °F 74% 30.18 in 2.0 mi WSW 19.6 mph 28.8 mph 0.00 in   Haze
5:05 PM 12.2 °F -3.7 °F 5.0 °F 73% 30.08 in 1.5 mi West 15.0 mph 31.1 mph N/A   Haze
5:10 PM 12.2 °F -4.3 °F 5.0 °F 73% 30.09 in 3.0 mi West 16.1 mph 24.2 mph N/A   Haze
5:23 PM 12.2 °F -8.2 °F 3.2 °F 67% 30.09 in 1.8 mi WSW 26.5 mph 33.4 mph N/A   Haze
5:41 PM 12.2 °F -5.3 °F 3.2 °F 67% 30.10 in 4.0 mi West 18.4 mph 24.2 mph N/A   Haze
5:56 PM 12.0 °F -3.4 °F 3.0 °F 67% 30.21 in 8.0 mi West 13.8 mph 24.2 mph N/A   Mostly Cloudy
6:26 PM 10.4 °F -7.2 °F 1.4 °F 67% 30.12 in 10.0 mi West 17.3 mph - N/A   Scattered Clouds
6:56 PM 10.0 °F -5.9 °F 1.0 °F 67% 30.24 in 10.0 mi West 13.8 mph - N/A   Clear
7:56 PM 10.0 °F -7.1 °F 3.0 °F 73% 30.25 in 10.0 mi West 16.1 mph - N/A   Clear
8:56 PM 9.0 °F -6.6 °F 1.9 °F 73% 30.27 in 10.0 mi West 12.7 mph 21.9 mph N/A   Clear
9:56 PM 8.1 °F -7.0 °F 1.0 °F 73% 30.29 in 10.0 mi WSW 11.5 mph - N/A   Clear
10:56 PM 7.0 °F -5.7 °F 1.9 °F 80% 30.29 in 10.0 mi WSW 8.1 mph - N/A   Clear
11:56 PM 7.0 °F -5.7 °F 1.9 °F 80% 30.29 in 10.0 mi SW 8.1 mph - N/A   Scattered Clouds